| time (UTC) | temp F | wind direction | speed MPH | gust MPH | rain 1hr in | rain 24hr in | rain mn in | humidity % | barometer mb |
| 20260505022316 | 81 | 59 | 0.0 | 2.0 | 0.00 | 0.00 | 0.00 | 100 | 1014.0 |
| 20260505021816 | 81 | 53 | 0.0 | 4.0 | 0.00 | 0.00 | 0.00 | 100 | 1014.0 |
| 20260505021316 | 81 | 11 | 0.0 | 0.0 | 0.00 | 0.00 | 0.00 | 100 | 1013.9 |
| 20260505020816 | 81 | 11 | 0.0 | 4.0 | 0.00 | 0.00 | 0.00 | 100 | 1013.9 |
| 20260505020723 | 81 | 60 | 0.0 | 0.0 | 0.00 | 0.00 | 0.00 | 100 | 1013.8 |
| 20260505020316 | 81 | 60 | 0.0 | 0.0 | 0.00 | 0.00 | 0.00 | 100 | 1013.8 |
| 20260505015816 | 81 | 60 | 0.0 | 1.0 | 0.00 | 0.00 | 0.00 | 100 | 1013.8 |
| 20260505015316 | 81 | 87 | 0.0 | 2.0 | 0.00 | 0.00 | 0.00 | 100 | 1013.8 |
| 20260505015215 | 81 | 160 | 0.0 | 2.0 | 0.00 | 0.00 | 0.00 | 100 | 1013.7 |
| 20260505014816 | 81 | 160 | 0.0 | 2.0 | 0.00 | 0.00 | 0.00 | 100 | 1013.7 |
| 20260505014316 | 81 | 120 | 0.0 | 0.0 | 0.00 | 0.00 | 0.00 | 100 | 1013.6 |
| 20260505013816 | 82 | 120 | 0.0 | 0.0 | 0.00 | 0.00 | 0.00 | 100 | 1013.5 |
| 20260505013316 | 82 | 120 | 0.0 | 4.0 | 0.00 | 0.00 | 0.00 | 100 | 1013.4 |
| 20260505012816 | 82 | 37 | 0.0 | 4.0 | 0.00 | 0.00 | 0.00 | 100 | 1013.3 |
| 20260505012316 | 82 | 60 | 0.0 | 5.0 | 0.00 | 0.00 | 0.00 | 100 | 1013.0 |
| 20260505011816 | 82 | 18 | 0.0 | 3.0 | 0.00 | 0.00 | 0.00 | 100 | 1013.2 |
| 20260505011337 | 82 | 28 | 1.0 | 3.0 | 0.00 | 0.00 | 0.00 | 100 | 1013.1 |
| 20260505011316 | 82 | 29 | 0.0 | 6.0 | 0.00 | 0.00 | 0.00 | 100 | 1013.1 |
| 20260505010816 | 82 | 28 | 1.0 | 3.0 | 0.00 | 0.00 | 0.00 | 100 | 1013.1 |
| 20260505010316 | 82 | 64 | 3.0 | 4.0 | 0.00 | 0.00 | 0.00 | 100 | 1011.1 |
| 20260505005816 | 82 | 267 | 0.0 | 4.0 | 0.00 | 0.00 | 0.00 | 100 | 1011.7 |
| 20260505005316 | 82 | 14 | 0.0 | 3.0 | 0.00 | 0.00 | 0.00 | 100 | 1011.1 |
| 20260505004816 | 82 | 64 | 0.0 | 4.0 | 0.00 | 0.00 | 0.00 | 100 | 1011.0 |
| 20260505004316 | 82 | 12 | 0.0 | 4.0 | 0.00 | 0.00 | 0.00 | 100 | 1010.7 |
| 20260505003942 | 82 | 47 | 2.0 | 5.0 | 0.00 | 0.00 | 0.00 | 100 | 1012.6 |
| 20260505003816 | 82 | 14 | 0.0 | 5.0 | 0.00 | 0.00 | 0.00 | 100 | 1011.0 |
| 20260505003316 | 82 | 324 | 0.0 | 3.0 | 0.00 | 0.00 | 0.00 | 100 | 1010.9 |
| 20260505002816 | 82 | 47 | 2.0 | 5.0 | 0.00 | 0.00 | 0.00 | 100 | 1012.6 |
| 20260505002316 | 82 | 32 | 4.0 | 4.0 | 0.00 | 0.00 | 0.00 | 100 | 1012.6 |
| 20260505001816 | 82 | 25 | 4.0 | 7.0 | 0.00 | 0.00 | 0.00 | 100 | 1012.5 |
| 20260505001316 | 82 | 67 | 2.0 | 7.0 | 0.00 | 0.00 | 0.00 | 100 | 1012.5 |
| 20260505000816 | 82 | 29 | 4.0 | 7.0 | 0.00 | 0.00 | 0.00 | 100 | 1010.5 |
| 20260505000316 | 82 | 68 | 5.0 | 5.0 | 0.00 | 0.00 | 0.00 | 100 | 1011.9 |
| 20260504235816 | 82 | 1 | 1.0 | 5.0 | 0.00 | 0.00 | 0.00 | 100 | 1011.2 |
| 20260504235316 | 83 | 61 | 1.0 | 5.0 | 0.00 | 0.00 | 0.00 | 100 | 1011.4 |
| 20260504234816 | 83 | 326 | 1.0 | 6.0 | 0.00 | 0.00 | 0.00 | 100 | 1010.4 |
| 20260504234316 | 83 | 22 | 2.0 | 6.0 | 0.00 | 0.00 | 0.00 | 100 | 1010.3 |
| 20260504233816 | 83 | 82 | 1.0 | 7.0 | 0.00 | 0.00 | 0.00 | 100 | 1010.1 |
| 20260504233316 | 83 | 25 | 1.0 | 4.0 | 0.00 | 0.00 | 0.00 | 100 | 1010.4 |
| 20260504232816 | 83 | 329 | 0.0 | 6.0 | 0.00 | 0.00 | 0.00 | 100 | 1012.0 |
| 20260504232316 | 83 | 341 | 0.0 | 5.0 | 0.00 | 0.00 | 0.00 | 100 | 1011.9 |
| 20260504231816 | 83 | 8 | 1.0 | 8.0 | 0.00 | 0.00 | 0.00 | 100 | 1012.0 |
| 20260504231316 | 83 | 1 | 3.0 | 10.0 | 0.00 | 0.00 | 0.00 | 100 | 1012.0 |
| 20260504230816 | 84 | 43 | 1.0 | 8.0 | 0.00 | 0.00 | 0.00 | 100 | 1011.9 |
| 20260504230316 | 84 | 331 | 4.0 | 8.0 | 0.00 | 0.00 | 0.00 | 100 | 1011.8 |
| 20260504225816 | 84 | 358 | 2.0 | 7.0 | 0.00 | 0.00 | 0.00 | 100 | 1011.7 |
| 20260504225316 | 84 | 43 | 2.0 | 9.0 | 0.00 | 0.00 | 0.00 | 100 | 1010.5 |
| 20260504224816 | 84 | 59 | 8.0 | 8.0 | 0.00 | 0.00 | 0.00 | 100 | 1012.0 |
| 20260504224316 | 84 | 313 | 1.0 | 8.0 | 0.00 | 0.00 | 0.00 | 100 | 1011.9 |
| 20260504223816 | 84 | 49 | 3.0 | 9.0 | 0.00 | 0.00 | 0.00 | 100 | 1012.0 |
| 20260504223316 | 85 | 42 | 4.0 | 9.0 | 0.00 | 0.00 | 0.00 | 100 | 1011.9 |
| 20260504222816 | 85 | 19 | 6.0 | 9.0 | 0.00 | 0.00 | 0.00 | 100 | 1011.8 |
| 20260504222316 | 85 | 352 | 1.0 | 9.0 | 0.00 | 0.00 | 0.00 | 100 | 1011.8 |
| 20260504221816 | 85 | 347 | 6.0 | 11.0 | 0.00 | 0.00 | 0.00 | 100 | 1011.9 |
| 20260504221316 | 85 | 50 | 6.0 | 11.0 | 0.00 | 0.00 | 0.00 | 100 | 1012.1 |
| 20260504220816 | 85 | 358 | 5.0 | 12.0 | 0.00 | 0.00 | 0.00 | 100 | 1012.1 |
| 20260504220316 | 85 | 302 | 4.0 | 9.0 | 0.00 | 0.00 | 0.00 | 100 | 1012.2 |
| 20260504215816 | 85 | 358 | 3.0 | 12.0 | 0.00 | 0.00 | 0.00 | 100 | 1012.2 |
| 20260504215316 | 85 | 25 | 11.0 | 11.0 | 0.00 | 0.00 | 0.00 | 100 | 1012.1 |
| 20260504214816 | 85 | 36 | 1.0 | 8.0 | 0.00 | 0.00 | 0.00 | 100 | 1012.0 |
| 20260504214316 | 85 | 358 | 5.0 | 10.0 | 0.00 | 0.00 | 0.00 | 100 | 1010.7 |
| 20260504213816 | 85 | 8 | 8.0 | 11.0 | 0.00 | 0.00 | 0.00 | 100 | 1012.0 |
| 20260504213316 | 85 | 29 | 10.0 | 11.0 | 0.00 | 0.00 | 0.00 | 100 | 1012.0 |
| 20260504212816 | 85 | 341 | 6.0 | 12.0 | 0.00 | 0.00 | 0.00 | 100 | 1012.0 |
| 20260504212316 | 85 | 40 | 5.0 | 13.0 | 0.00 | 0.00 | 0.00 | 100 | 1012.0 |
| 20260504211816 | 85 | 56 | 1.0 | 11.0 | 0.00 | 0.00 | 0.00 | 100 | 1012.0 |
| 20260504211316 | 85 | 66 | 5.0 | 12.0 | 0.00 | 0.00 | 0.00 | 100 | 1011.9 |
| 20260504210816 | 85 | 60 | 6.0 | 11.0 | 0.00 | 0.00 | 0.00 | 100 | 1012.0 |
| 20260504210316 | 85 | 2 | 8.0 | 12.0 | 0.00 | 0.00 | 0.00 | 100 | 1012.1 |
| 20260504205816 | 86 | 42 | 6.0 | 12.0 | 0.00 | 0.00 | 0.00 | 100 | 1012.1 |
| 20260504205316 | 86 | 25 | 8.0 | 12.0 | 0.00 | 0.00 | 0.00 | 100 | 1012.1 |
| 20260504204816 | 86 | 15 | 3.0 | 12.0 | 0.00 | 0.00 | 0.00 | 100 | 1012.1 |
| 20260504204316 | 86 | 9 | 7.0 | 12.0 | 0.00 | 0.00 | 0.00 | 100 | 1012.0 |
| 20260504203816 | 86 | 358 | 7.0 | 10.0 | 0.00 | 0.00 | 0.00 | 100 | 1012.1 |
| 20260504203316 | 85 | 47 | 9.0 | 11.0 | 0.00 | 0.00 | 0.00 | 100 | 1012.1 |
| 20260504203152 | 86 | 32 | 8.0 | 11.0 | 0.00 | 0.00 | 0.00 | 100 | 1012.1 |
| 20260504202816 | 86 | 32 | 8.0 | 11.0 | 0.00 | 0.00 | 0.00 | 100 | 1012.1 |
| 20260504202316 | 86 | 12 | 4.0 | 10.0 | 0.00 | 0.00 | 0.00 | 100 | 1012.0 |
| 20260504201816 | 86 | 8 | 2.0 | 12.0 | 0.00 | 0.00 | 0.00 | 100 | 1012.1 |
| 20260504201316 | 86 | 47 | 9.0 | 9.0 | 0.00 | 0.00 | 0.00 | 100 | 1012.1 |
| 20260504200816 | 86 | 36 | 6.0 | 12.0 | 0.00 | 0.00 | 0.00 | 100 | 1012.3 |
| 20260504200316 | 86 | 85 | 5.0 | 10.0 | 0.00 | 0.00 | 0.00 | 100 | 1012.3 |
| 20260504195816 | 86 | 28 | 4.0 | 11.0 | 0.00 | 0.00 | 0.00 | 100 | 1012.4 |
| 20260504195316 | 86 | 315 | 5.0 | 7.0 | 0.00 | 0.00 | 0.00 | 100 | 1012.4 |
| 20260504194816 | 86 | 84 | 5.0 | 12.0 | 0.00 | 0.00 | 0.00 | 100 | 1012.4 |
| 20260504194316 | 85 | 4 | 3.0 | 13.0 | 0.00 | 0.00 | 0.00 | 100 | 1012.5 |
| 20260504194131 | 85 | 30 | 10.0 | 16.0 | 0.00 | 0.00 | 0.00 | 100 | 1012.6 |
| 20260504193816 | 85 | 30 | 10.0 | 16.0 | 0.00 | 0.00 | 0.00 | 100 | 1012.6 |
| 20260504193316 | 86 | 5 | 7.0 | 13.0 | 0.00 | 0.00 | 0.00 | 100 | 1012.7 |
| 20260504192816 | 85 | 25 | 8.0 | 14.0 | 0.00 | 0.00 | 0.00 | 100 | 1012.7 |
| 20260504192316 | 85 | 14 | 4.0 | 13.0 | 0.00 | 0.00 | 0.00 | 100 | 1012.8 |
| 20260504191816 | 85 | 77 | 7.0 | 13.0 | 0.00 | 0.00 | 0.00 | 100 | 1012.8 |
| 20260504191316 | 85 | 60 | 3.0 | 9.0 | 0.00 | 0.00 | 0.00 | 100 | 1012.9 |
| 20260504190816 | 85 | 14 | 3.0 | 11.0 | 0.00 | 0.00 | 0.00 | 100 | 1013.0 |
| 20260504190316 | 86 | 77 | 8.0 | 10.0 | 0.00 | 0.00 | 0.00 | 100 | 1013.0 |
| 20260504185816 | 86 | 104 | 4.0 | 11.0 | 0.00 | 0.00 | 0.00 | 100 | 1013.0 |
| 20260504185316 | 86 | 67 | 8.0 | 12.0 | 0.00 | 0.00 | 0.00 | 100 | 1013.1 |
| 20260504184817 | 86 | 53 | 6.0 | 9.0 | 0.00 | 0.00 | 0.00 | 100 | 1013.3 |
| 20260504184316 | 86 | 28 | 4.0 | 7.0 | 0.00 | 0.00 | 0.00 | 100 | 1013.2 |
| 20260504183817 | 87 | 112 | 4.0 | 7.0 | 0.00 | 0.00 | 0.00 | 100 | 1013.4 |
| 20260504183317 | 87 | 37 | 4.0 | 6.0 | 0.00 | 0.00 | 0.00 | 100 | 1013.5 |
| 20260504182817 | 87 | 87 | 0.0 | 3.0 | 0.00 | 0.00 | 0.00 | 100 | 1013.5 |
| 20260504182317 | 86 | 317 | 0.0 | 8.0 | 0.00 | 0.00 | 0.00 | 100 | 1013.7 |
| 20260504181817 | 85 | 33 | 5.0 | 7.0 | 0.00 | 0.00 | 0.00 | 100 | 1013.7 |
| 20260504181317 | 86 | 23 | 4.0 | 8.0 | 0.00 | 0.00 | 0.00 | 100 | 1013.7 |
| 20260504180817 | 86 | 19 | 6.0 | 9.0 | 0.00 | 0.00 | 0.00 | 100 | 1013.9 |
| 20260504180317 | 87 | 61 | 0.0 | 6.0 | 0.00 | 0.00 | 0.00 | 100 | 1014.0 |
| 20260504175817 | 87 | 81 | 4.0 | 5.0 | 0.00 | 0.00 | 0.00 | 100 | 1014.1 |
| 20260504175317 | 87 | 240 | 0.0 | 4.0 | 0.00 | 0.00 | 0.00 | 100 | 1014.1 |
| 20260504174817 | 87 | 25 | 0.0 | 8.0 | 0.00 | 0.00 | 0.00 | 100 | 1014.2 |
| 20260504174317 | 87 | 105 | 4.0 | 9.0 | 0.00 | 0.00 | 0.00 | 100 | 1014.3 |
| 20260504173817 | 87 | 45 | 3.0 | 7.0 | 0.00 | 0.00 | 0.00 | 100 | 1014.2 |
| 20260504173317 | 87 | 164 | 0.0 | 5.0 | 0.00 | 0.00 | 0.00 | 100 | 1014.2 |
| 20260504172817 | 87 | 105 | 3.0 | 5.0 | 0.00 | 0.00 | 0.00 | 100 | 1014.3 |
| 20260504172317 | 87 | 327 | 1.0 | 7.0 | 0.00 | 0.00 | 0.00 | 100 | 1014.2 |
| 20260504171817 | 87 | 136 | 5.0 | 13.0 | 0.00 | 0.00 | 0.00 | 100 | 1014.5 |
| 20260504171317 | 86 | 68 | 0.0 | 8.0 | 0.00 | 0.00 | 0.00 | 100 | 1014.3 |
| 20260504170817 | 86 | 14 | 1.0 | 8.0 | 0.00 | 0.00 | 0.00 | 100 | 1014.2 |
| 20260504170317 | 87 | 295 | 4.0 | 9.0 | 0.00 | 0.00 | 0.00 | 100 | 1014.6 |
| 20260504160317 | 85 | 84 | 3.0 | 8.0 | 0.00 | 0.00 | 0.00 | 100 | 1015.3 |
| 20260504150819 | 84 | 35 | 1.0 | 10.0 | 0.00 | 0.00 | 0.00 | 100 | 1015.6 |
| 20260504150317 | 84 | 272 | 0.0 | 8.0 | 0.00 | 0.00 | 0.00 | 100 | 1015.5 |
| 20260504141317 | 82 | 177 | 6.0 | 10.0 | 0.00 | 0.00 | 0.00 | 100 | 1015.0 |
| 20260504140817 | 82 | 66 | 2.0 | 10.0 | 0.00 | 0.00 | 0.00 | 100 | 1015.4 |
| 20260504140317 | 82 | 229 | 0.0 | 11.0 | 0.00 | 0.00 | 0.00 | 100 | 1015.3 |
| 20260504130817 | 79 | 88 | 5.0 | 9.0 | 0.00 | 0.00 | 0.00 | 100 | 1015.0 |
| 20260504130317 | 79 | 87 | 5.0 | 9.0 | 0.00 | 0.00 | 0.00 | 100 | 1015.0 |
| 20260504120317 | 75 | 146 | 3.0 | 9.0 | 0.00 | 0.00 | 0.00 | 100 | 1014.7 |
| 20260504110317 | 74 | 170 | 0.0 | 5.0 | 0.00 | 0.00 | 0.00 | 100 | 1014.4 |
| 20260504100317 | 74 | 50 | 0.0 | 3.0 | 0.00 | 0.00 | 0.00 | 100 | 1014.0 |
| 20260504081817 | 75 | 112 | 2.0 | 6.0 | 0.00 | 0.00 | 0.00 | 100 | 1014.2 |
| 20260504081317 | 75 | 206 | 2.0 | 6.0 | 0.00 | 0.00 | 0.00 | 100 | 1014.2 |
| 20260504080817 | 75 | 71 | 0.0 | 4.0 | 0.00 | 0.00 | 0.00 | 100 | 1014.2 |
| 20260504080317 | 76 | 99 | 0.0 | 5.0 | 0.00 | 0.00 | 0.00 | 100 | 1014.1 |
| 20260504070318 | 77 | 88 | 1.0 | 2.0 | 0.00 | 0.00 | 0.00 | 100 | 1014.6 |
| 20260504050338 | 78 | 120 | 0.0 | 0.0 | 0.00 | 0.00 | 0.00 | 100 | 1015.2 |
| 20260504050318 | 78 | 120 | 0.0 | 0.0 | 0.00 | 0.00 | 0.00 | 100 | 1015.3 |
| 20260504045818 | 78 | 120 | 0.0 | 0.0 | 0.00 | 0.00 | 0.00 | 100 | 1015.2 |
| 20260504045318 | 78 | 120 | 0.0 | 0.0 | 0.00 | 0.00 | 0.00 | 100 | 1015.2 |
| 20260504044818 | 78 | 120 | 0.0 | 0.0 | 0.00 | 0.00 | 0.00 | 100 | 1015.3 |
| 20260504044318 | 78 | 120 | 0.0 | 0.0 | 0.00 | 0.00 | 0.00 | 100 | 1015.3 |
| 20260504044140 | 79 | 120 | 0.0 | 3.0 | 0.00 | 0.00 | 0.00 | 100 | 1014.8 |
| 20260504043818 | 79 | 120 | 0.0 | 3.0 | 0.00 | 0.00 | 0.00 | 100 | 1014.8 |
| 20260504043318 | 79 | 21 | 0.0 | 4.0 | 0.00 | 0.00 | 0.00 | 100 | 1015.1 |
| 20260504042818 | 79 | 157 | 0.0 | 4.0 | 0.00 | 0.00 | 0.00 | 100 | 1015.2 |
| 20260504042318 | 79 | 192 | 0.0 | 2.0 | 0.00 | 0.00 | 0.00 | 100 | 1015.4 |
| 20260504041818 | 79 | 187 | 0.0 | 2.0 | 0.00 | 0.00 | 0.00 | 100 | 1015.6 |
| 20260504041318 | 79 | 205 | 1.0 | 2.0 | 0.00 | 0.00 | 0.00 | 100 | 1015.6 |
| 20260504040818 | 79 | 151 | 0.0 | 1.0 | 0.00 | 0.00 | 0.00 | 100 | 1015.7 |
| 20260504040318 | 79 | 66 | 0.0 | 0.0 | 0.00 | 0.00 | 0.00 | 100 | 1015.8 |
| 20260504035818 | 79 | 66 | 0.0 | 0.0 | 0.00 | 0.00 | 0.00 | 100 | 1015.8 |
| 20260504035318 | 79 | 66 | 0.0 | 0.0 | 0.00 | 0.00 | 0.00 | 100 | 1015.8 |
| 20260504034818 | 79 | 66 | 0.0 | 0.0 | 0.00 | 0.00 | 0.00 | 100 | 1015.8 |
| 20260504034318 | 79 | 66 | 0.0 | 4.0 | 0.00 | 0.00 | 0.00 | 100 | 1015.8 |
| 20260504033818 | 79 | 77 | 0.0 | 1.0 | 0.00 | 0.00 | 0.00 | 100 | 1015.8 |
| 20260504033318 | 79 | 60 | 0.0 | 0.0 | 0.00 | 0.00 | 0.00 | 100 | 1015.7 |
| 20260504033141 | 79 | 60 | 0.0 | 0.0 | 0.00 | 0.00 | 0.00 | 100 | 1015.7 |
| 20260504032818 | 79 | 60 | 0.0 | 0.0 | 0.00 | 0.00 | 0.00 | 100 | 1015.7 |
| 20260504032743 | 79 | 60 | 0.0 | 0.0 | 0.00 | 0.00 | 0.00 | 100 | 1015.6 |
| 20260504032318 | 79 | 60 | 0.0 | 0.0 | 0.00 | 0.00 | 0.00 | 100 | 1015.7 |
| 20260504031818 | 79 | 60 | 0.0 | 0.0 | 0.00 | 0.00 | 0.00 | 100 | 1015.7 |
| 20260504031318 | 79 | 60 | 0.0 | 0.0 | 0.00 | 0.00 | 0.00 | 100 | 1015.7 |
| 20260504030818 | 79 | 60 | 0.0 | 0.0 | 0.00 | 0.00 | 0.00 | 100 | 1015.6 |
| 20260504030318 | 79 | 60 | 0.0 | 0.0 | 0.00 | 0.00 | 0.00 | 100 | 1015.6 |
| 20260504025818 | 80 | 60 | 0.0 | 0.0 | 0.00 | 0.00 | 0.00 | 100 | 1015.6 |
| 20260504025318 | 80 | 60 | 0.0 | 1.0 | 0.00 | 0.00 | 0.00 | 100 | 1015.5 |
| 20260504024818 | 80 | 165 | 1.0 | 2.0 | 0.00 | 0.00 | 0.00 | 100 | 1015.6 |
| 20260504024318 | 80 | 113 | 0.0 | 4.0 | 0.00 | 0.00 | 0.00 | 100 | 1015.4 |
| 20260504023818 | 80 | 116 | 0.0 | 2.0 | 0.00 | 0.00 | 0.00 | 100 | 1014.1 |
| 20260504023318 | 80 | 71 | 0.0 | 3.0 | 0.00 | 0.00 | 0.00 | 100 | 1015.4 |
| 20260504022818 | 80 | 94 | 0.0 | 4.0 | 0.00 | 0.00 | 0.00 | 100 | 1015.3 |